Back to catalog

COSMOS 1275 DEB

AlivePO
NORAD 13815·DEBRIS·🇷🇺 Russia

Launched Jun 4, 1981 from Plesetsk Cosmodrome

Loading…

Next Passes (next 24 hours)

TLE

FreshSource: Space-Track

Epoch: Sep 14, 2026, 11:46 UTC

1 13815U 81053HK  26257.49040687  .00001169  00000-0  10158-2 0  9999
2 13815  83.0268 166.8308 0106938 176.3527 308.6374 13.82694170181829

Track COSMOS 1275 DEB in real time with AllMySat

Download on the App Store